Theta_e
339 331 325 325 325 325 327 329 333 337 338 339 340 340 340 339 340 340 343 345 345 346 346 345 345 345 345 345 345 345 345 346 346 346 345 346 347 347 348 349 350 350
337 331 325 324 324 324 324 324 328 333 335 336 338 338 339 340 343 344 345 346 346 346 344 343 344 345 345 345 345 344 345 346 346 347 346 346 346 346 348 349 351 352
333 330 325 324 324 324 325 327 330 332 334 336 338 339 341 343 345 345 347 347 347 347 344 342 343 344 346 346 345 345 346 347 347 347 348 347 347 348 350 352 353 353
329 328 326 328 328 328 331 333 335 336 337 338 339 341 343 345 346 347 349 350 350 349 345 343 343 345 347 347 345 346 348 348 348 348 348 348 349 350 350 352 354 354
327 328 330 332 334 334 336 336 337 337 337 339 340 344 346 349 349 350 350 350 350 350 347 344 344 345 347 346 346 347 348 348 348 348 348 348 348 349 348 349 352 354
327 330 333 335 335 335 336 335 337 338 341 343 346 349 351 350 349 348 347 346 345 347 347 345 346 346 347 346 346 348 348 350 350 351 352 351 350 350 349 350 351 353
330 332 335 336 335 336 338 340 343 345 347 350 352 353 352 350 348 347 346 345 345 346 346 346 347 348 348 349 350 351 352 353 355 355 355 355 354 353 354 353 353 353
337 335 335 337 339 343 346 348 350 351 352 353 353 353 351 349 349 349 347 347 347 347 348 350 352 352 353 353 354 355 355 356 356 357 357 356 356 356 355 355 354 354
340 338 340 344 347 349 350 351 351 351 353 353 353 351 351 351 350 349 350 350 351 352 353 354 355 356 356 356 356 356 356 355 354 354 354 355 354 354 353 353 352 352
343 344 349 351 351 352 351 351 351 352 353 353 352 351 351 352 351 351 351 352 354 354 355 355 356 356 356 355 355 355 354 353 353 352 352 351 350 349 349 349 349 348
348 351 353 353 352 352 352 351 352 352 353 353 354 354 354 354 354 355 355 356 357 356 356 356 356 355 354 354 353 352 351 350 349 349 349 348 348 347 346 346 345 344
352 353 353 352 353 353 353 353 353 353 354 354 356 357 357 357 358 357 357 356 356 356 355 354 353 352 351 350 348 346 344 342 340 340 340 340 341 340 340 341 340 339
352 353 352 352 353 353 354 355 356 355 357 357 358 359 359 359 358 356 355 353 352 352 351 351 350 349 348 346 343 339 335 331 329 330 331 332 332 333 333 333 334 333
353 353 353 353 354 356 356 358 358 358 358 359 359 359 358 356 354 352 351 350 349 349 348 347 344 342 340 336 333 330 328 327 327 327 327 327 327 328 328 328 328 327
355 355 356 358 359 359 360 360 360 359 359 358 357 355 352 350 349 347 347 345 344 341 338 336 333 331 329 328 327 327 326 326 325 325 324 324 324 324 324 324 323 323
357 357 359 361 362 362 362 361 360 359 357 354 352 349 348 345 342 340 338 336 334 330 328 327 327 327 328 328 327 326 324 323 324 324 324 325 325 324 324 323 323 323
359 360 362 362 363 363 362 360 358 354 350 347 345 344 340 336 331 328 327 327 326 327 327 328 328 328 328 326 325 324 324 325 326 326 326 326 325 325 325 324 324 323
360 361 362 362 361 360 358 356 352 347 343 339 335 332 328 325 324 325 326 327 327 328 328 328 328 327 325 325 324 326 326 327 327 327 326 326 326 325 325 325 325 325
361 361 361 360 359 357 353 349 345 340 334 328 325 324 324 325 327 328 329 328 328 327 327 326 325 324 325 325 326 327 327 327 327 327 327 326 326 325 325 325 325 325
360 359 358 357 354 350 345 341 336 330 325 322 323 325 327 328 329 329 328 328 327 325 324 324 324 325 326 327 327 327 327 327 327 326 326 326 325 325 325 324 324 324
357 356 354 351 346 340 335 330 327 323 322 324 326 328 329 330 328 327 326 325 325 324 324 325 326 326 327 327 327 327 327 327 326 326 326 325 325 325 325 324 324 324
353 352 348 342 336 330 326 323 322 323 325 328 330 330 329 327 326 325 325 325 325 325 326 326 327 327 327 327 327 327 327 327 326 326 325 325 325 325 324 324 324 325
350 346 339 332 327 323 322 322 324 326 329 330 330 328 326 325 324 325 326 326 326 326 327 327 326 326 326 326 325 326 326 326 326 326 326 325 325 324 324 325 325 325
344 336 329 324 323 322 322 325 327 328 329 328 326 325 324 325 326 326 326 327 327 327 326 326 325 325 325 325 324 325 325 325 326 327 327 326 325 324 324 325 325 325
334 327 323 322 322 323 326 327 327 327 326 325 324 324 325 326 325 326 326 327 326 326 325 325 325 325 325 325 324 324 324 324 325 326 326 326 326 325 325 325 325 325
326 322 322 322 323 325 327 326 325 324 324 324 324 325 325 325 324 325 326 326 325 325 325 325 324 324 324 324 324 325 325 324 324 324 325 326 326 326 326 326 326 326
Wind_Speed
21 22 24 25 25 24 24 24 23 22 21 22 23 24 24 25 24 23 23 23 24 24 24 24 25 24 23 22 21 20 20 21 22 21 21 23 25 26 27 29 29 29
21 22 23 23 23 22 21 22 22 23 24 24 24 23 22 20 19 19 20 22 23 24 23 24 24 25 25 24 22 22 22 23 24 25 25 25 26 27 29 30 31 30
22 22 22 21 21 20 18 18 19 21 22 21 19 18 18 17 17 19 20 22 25 26 26 25 24 24 25 25 24 23 23 24 27 28 27 27 28 29 30 30 33 34
22 21 20 19 18 17 16 16 17 18 18 18 17 16 17 18 20 22 24 25 27 28 27 24 22 23 26 26 25 23 23 25 27 29 29 29 29 29 30 29 32 35
22 21 19 17 16 15 16 16 17 17 18 19 18 18 20 22 23 24 25 25 26 26 25 21 20 23 25 26 26 25 25 25 26 27 28 28 28 29 30 31 31 33
21 20 18 17 16 16 17 17 18 19 20 22 22 23 25 23 21 19 19 19 20 22 21 19 19 21 23 25 26 25 24 24 24 25 26 26 28 29 30 31 30 30
19 19 18 16 16 16 17 18 19 22 24 26 26 25 23 20 17 17 17 17 18 19 19 19 20 22 23 24 25 24 24 24 23 24 24 24 26 27 28 28 28 29
16 17 17 15 16 17 18 20 22 26 28 26 24 21 20 19 19 19 19 18 18 19 20 21 22 22 24 25 25 25 25 25 24 24 24 25 26 27 28 29 30 30
15 16 16 15 16 17 18 20 22 23 24 22 20 20 20 21 21 20 19 18 18 19 19 20 21 22 23 23 24 24 24 23 24 25 26 26 27 27 28 28 29 28
16 18 18 17 16 16 16 17 17 17 18 19 19 20 20 20 20 19 19 18 17 17 18 18 19 20 20 20 20 20 21 21 22 23 24 25 25 25 25 26 27 28
20 22 22 20 19 17 16 16 16 16 17 18 18 19 19 19 19 18 18 18 18 17 17 17 17 16 17 17 17 18 19 20 20 21 23 24 24 24 25 26 27 28
24 26 24 22 21 19 17 16 16 17 18 18 18 18 18 18 18 18 19 19 18 18 17 16 16 17 17 18 18 19 20 21 21 22 23 24 25 26 26 27 27 27
28 28 26 24 21 19 18 17 17 17 17 17 17 17 17 18 19 19 19 18 17 16 16 16 17 18 19 20 21 22 24 25 25 24 24 24 25 26 27 28 28 29
29 27 26 23 21 20 19 19 18 17 16 16 16 17 18 19 19 18 16 15 15 15 16 17 19 20 22 23 24 24 24 24 24 24 25 25 25 26 27 27 28 28
27 25 23 21 20 19 19 18 17 16 15 16 17 18 19 18 16 15 14 15 16 17 18 20 21 22 22 22 22 23 23 23 23 24 25 25 25 25 25 25 24 23
25 22 20 19 18 18 17 17 15 14 15 16 17 17 16 14 14 15 16 17 18 19 19 19 20 20 20 21 22 23 24 23 23 23 23 23 23 23 22 21 19 19
22 20 19 18 17 16 16 14 14 14 15 14 14 14 14 14 15 16 16 17 17 17 17 17 18 19 20 21 22 21 20 20 19 19 19 18 18 18 18 17 16 16
20 19 18 17 16 15 14 13 13 13 13 13 13 14 14 14 14 14 14 14 14 15 16 17 18 19 20 19 18 16 16 16 15 14 14 13 13 13 13 13 12 12
19 18 17 16 15 13 12 11 12 12 12 13 13 12 12 11 11 11 12 13 14 16 17 17 17 17 16 14 14 14 13 12 11 11 11 11 11 11 11 11 11 10
18 17 16 14 12 11 10 11 11 11 11 10 9 8 8 8 9 11 13 14 15 16 16 15 14 13 13 12 12 12 11 11 11 11 11 11 11 11 12 12 12 11
18 16 14 12 10 10 11 11 10 9 7 6 5 5 5 7 9 12 14 14 15 14 13 12 12 12 12 12 12 12 12 12 11 11 10 11 11 11 12 11 11 10
16 14 11 10 10 10 10 8 6 4 2 2 3 4 6 9 11 11 12 13 13 13 12 12 12 13 13 14 15 15 14 14 13 12 11 12 12 11 12 12 11 11
14 12 11 11 11 9 6 4 2 1 0 1 3 5 7 9 10 11 12 12 12 12 13 14 15 18 20 21 22 22 20 19 17 15 14 14 15 16 16 15 12 12
12 11 11 10 8 6 4 4 3 3 1 1 3 5 6 9 11 12 12 12 14 15 17 19 20 23 24 25 26 27 27 25 23 20 18 18 19 21 21 19 15 14
11 11 10 8 6 6 6 6 5 5 3 2 3 6 9 11 12 11 12 15 17 19 20 22 23 23 24 24 25 26 28 29 28 26 24 22 22 22 22 22 20 18
12 10 8 7 7 8 8 8 7 7 5 4 5 9 11 12 11 11 14 18 20 20 21 21 21 21 21 21 21 22 24 27 29 30 29 27 25 23 22 23 24 23
Wind_Direction
229 226 225 227 229 232 234 235 239 244 248 249 252 257 262 268 273 274 274 276 278 278 278 276 274 274 274 273 273 270 268 268 270 272 271 271 272 272 273 274 271 272
229 228 227 229 232 234 235 238 241 245 248 253 257 261 266 272 276 276 274 274 275 277 280 278 275 275 273 271 272 270 267 268 270 270 269 268 270 271 273 274 273 275
227 228 228 230 233 235 236 238 241 244 249 254 259 264 270 276 283 285 283 281 280 281 284 283 279 278 274 271 272 270 267 269 270 269 269 269 271 272 273 275 274 272
226 226 227 228 230 233 234 238 243 249 253 257 265 272 278 282 285 287 288 286 285 284 284 283 279 276 272 268 267 267 266 268 267 266 266 268 269 269 270 273 271 269
226 225 225 226 229 233 238 244 251 257 260 264 269 274 278 281 282 283 284 283 281 281 281 277 270 267 266 263 261 261 262 262 261 262 263 265 265 266 268 268 267 269
224 223 225 230 235 242 249 254 260 264 266 267 270 276 278 277 275 275 278 279 276 275 272 263 255 255 257 257 258 260 262 263 264 267 269 269 267 267 267 266 266 271
224 225 228 236 244 253 261 267 270 269 269 270 271 273 272 266 267 272 275 277 274 268 262 254 250 250 250 252 255 258 262 265 269 270 270 268 266 265 266 266 269 275
228 229 233 244 256 266 271 271 269 267 266 267 265 260 256 258 266 271 272 270 266 260 256 254 252 251 252 255 259 262 264 266 269 270 269 266 265 266 268 269 272 277
229 230 236 249 258 261 261 258 257 259 259 256 252 251 255 263 268 270 271 269 263 259 256 256 258 259 260 263 266 268 270 270 271 273 275 275 274 275 274 274 277 280
228 229 232 239 244 246 247 247 247 248 248 247 250 255 260 264 267 270 272 272 270 268 265 264 263 264 265 268 271 275 277 278 278 278 280 282 284 284 284 283 284 285
225 227 229 234 241 246 248 248 246 246 247 250 255 259 263 266 270 273 276 277 276 273 270 268 267 269 272 274 278 281 283 285 285 284 284 285 286 286 287 287 286 286
222 227 233 239 245 250 253 254 253 252 253 255 258 262 267 271 275 278 278 276 274 271 271 273 275 278 280 282 285 287 289 290 289 286 284 283 283 283 283 284 285 286
221 227 235 241 247 253 259 262 262 261 260 260 263 267 273 277 279 279 278 275 275 276 279 281 282 284 286 289 292 293 294 293 292 291 290 288 287 286 285 285 286 286
221 226 232 238 246 252 259 263 264 264 264 266 271 277 280 281 279 278 278 280 283 286 288 290 291 292 293 294 295 295 296 297 297 297 296 295 293 290 289 288 288 287
219 223 229 234 241 246 252 256 258 261 267 274 280 281 280 278 279 282 287 291 294 295 296 296 297 298 300 302 304 305 307 308 307 306 303 301 299 298 296 294 291 289
217 222 227 231 236 241 245 249 256 265 275 278 276 274 275 278 285 290 292 294 294 295 298 300 304 308 311 314 316 317 317 316 314 312 310 309 307 305 302 299 295 291
217 221 225 229 234 239 244 252 264 271 271 269 267 271 278 284 288 290 291 293 297 303 309 313 316 318 319 320 322 322 322 321 320 318 316 314 312 309 306 303 299 293
217 221 225 230 234 240 250 260 265 263 261 264 270 277 283 288 291 295 300 307 314 320 322 322 322 323 324 327 330 331 330 330 330 330 328 325 322 322 323 322 318 309
218 223 226 230 237 246 256 258 254 255 262 271 278 286 294 301 307 313 320 325 326 325 325 327 329 332 335 340 341 341 343 347 349 347 341 338 336 337 339 339 334 326
219 224 227 233 240 244 244 243 247 258 270 279 291 303 309 315 322 325 328 328 327 330 334 338 344 349 354 357 357 358 3 4 360 353 348 348 348 345 342 340 336 331
220 224 228 230 229 228 232 241 252 264 276 292 308 315 320 326 330 330 331 335 341 348 356 1 7 13 17 19 21 20 19 15 9 4 1 0 357 350 346 347 348 342
221 223 220 214 215 222 234 245 254 263 282 313 325 329 333 336 340 345 352 1 8 14 22 30 36 43 48 50 49 45 40 34 29 24 20 17 13 10 9 11 9 358
213 209 204 206 216 224 226 225 213 198 205 356 341 338 343 354 9 21 26 30 36 44 52 60 66 70 71 69 65 61 56 51 45 42 40 35 32 32 30 29 25 9
196 196 203 210 212 201 177 165 158 151 130 48 356 355 16 33 40 45 47 51 62 72 78 82 82 81 78 74 70 66 61 57 54 52 51 47 45 44 43 43 42 32
189 197 207 204 185 162 153 150 141 132 120 86 46 43 54 58 56 57 62 71 83 90 92 90 87 83 79 74 70 66 62 58 56 56 56 54 52 53 52 50 49 45
194 199 195 177 163 156 148 136 126 122 118 100 77 70 71 71 68 70 80 91 98 99 96 93 88 81 75 70 66 63 60 58 57 57 59 58 56 57 57 55 54 53